DW7918 Weather Reports


Display with metric or nautical units.
time (UTC)temp
F
wind
direction
speed
MPH
gust
MPH
rain 1hr
in
rain 24hr
in
rain mn
in
humidity
%
barometer
mb
20260831194203 87 297 4.0 10.0 0.00 0.00 0.00 47 1015.1
20260831194003 87 297 3.0 10.0 0.00 0.00 0.00 48 1015.1
20260831193803 87 295 3.0 10.0 0.00 0.00 0.00 47 1015.2
20260831193603 87 297 2.0 10.0 0.00 0.00 0.00 47 1015.2
20260831193404 87 298 2.0 8.0 0.00 0.00 0.00 50 1015.2
20260831193203 87 298 2.0 8.0 0.00 0.00 0.00 50 1015.1
20260831193024 87 298 2.0 8.0 0.00 0.00 0.00 48 1015.2
20260831192824 87 298 3.0 8.0 0.00 0.00 0.00 50 1015.2
20260831192603 87 296 3.0 8.0 0.00 0.00 0.00 52 1015.2
20260831192403 86 297 3.0 8.0 0.00 0.00 0.00 51 1015.3
20260831192203 86 296 4.0 8.0 0.00 0.00 0.00 51 1015.3
20260831192003 86 295 4.0 9.0 0.00 0.00 0.00 51 1015.3
20260831191803 86 295 4.0 9.0 0.00 0.00 0.00 52 1015.3
20260831191603 86 297 5.0 9.0 0.00 0.00 0.00 52 1015.5
20260831191403 86 297 4.0 9.0 0.00 0.00 0.00 51 1015.6
20260831191203 86 297 4.0 9.0 0.00 0.00 0.00 52 1015.5
20260831191003 86 298 3.0 9.0 0.00 0.00 0.00 51 1015.6
20260831190803 86 297 3.0 8.0 0.00 0.00 0.00 52 1015.6
20260831190603 86 294 3.0 8.0 0.00 0.00 0.00 52 1015.7
20260831190403 86 294 3.0 7.0 0.00 0.00 0.00 54 1015.7
20260831190203 85 294 3.0 7.0 0.00 0.00 0.00 52 1015.7
20260831190003 85 295 2.0 7.0 0.00 0.00 0.00 52 1015.8
20260831185803 85 297 3.0 8.0 0.00 0.00 0.00 53 1015.8
20260831185603 85 295 3.0 9.0 0.00 0.00 0.00 52 1015.8
20260831185404 85 298 4.0 9.0 0.00 0.00 0.00 54 1015.8
20260831185203 85 296 4.0 9.0 0.00 0.00 0.00 52 1015.8
20260831185003 85 295 5.0 10.0 0.00 0.00 0.00 51 1015.8
20260831184803 86 295 5.0 10.0 0.00 0.00 0.00 49 1015.7
20260831184603 86 297 5.0 10.0 0.00 0.00 0.00 51 1015.8
20260831184403 86 296 6.0 12.0 0.00 0.00 0.00 50 1015.8
20260831184203 86 296 6.0 12.0 0.00 0.00 0.00 49 1015.7
20260831184024 86 296 6.0 12.0 0.00 0.00 0.00 48 1015.7
20260831183803 86 296 6.0 12.0 0.00 0.00 0.00 50 1015.8
20260831183603 85 295 6.0 12.0 0.00 0.00 0.00 50 1015.8
20260831183424 85 294 6.0 10.0 0.00 0.00 0.00 49 1015.9
20260831183224 85 294 6.0 10.0 0.00 0.00 0.00 50 1016.0
20260831183003 85 295 6.0 10.0 0.00 0.00 0.00 51 1015.9
20260831182803 85 296 6.0 10.0 0.00 0.00 0.00 50 1015.9
20260831182603 85 295 5.0 10.0 0.00 0.00 0.00 50 1016.0
20260831182403 85 296 5.0 10.0 0.00 0.00 0.00 51 1016.1
20260831182203 85 298 4.0 9.0 0.00 0.00 0.00 52 1016.1
20260831182003 85 296 4.0 9.0 0.00 0.00 0.00 52 1016.1
20260831181803 85 296 4.0 9.0 0.00 0.00 0.00 53 1016.2
20260831181603 85 297 4.0 8.0 0.00 0.00 0.00 54 1016.1
20260831181403 84 297 4.0 9.0 0.00 0.00 0.00 56 1016.2
20260831181203 84 296 4.0 9.0 0.00 0.00 0.00 55 1016.3
20260831181003 84 296 5.0 9.0 0.00 0.00 0.00 56 1016.3
20260831180803 83 297 4.0 9.0 0.00 0.00 0.00 54 1016.3
20260831180604 83 296 4.0 9.0 0.00 0.00 0.00 55 1016.4
20260831180403 83 295 4.0 7.0 0.00 0.00 0.00 55 1016.3
20260831180203 83 294 4.0 7.0 0.00 0.00 0.00 56 1016.3
20260831180024 82 293 4.0 7.0 0.00 0.00 0.00 58 1016.3
20260831175803 82 294 4.0 7.0 0.00 0.00 0.00 56 1016.3
20260831175603 82 294 4.0 8.0 0.00 0.00 0.00 56 1016.4
20260831175403 82 294 4.0 8.0 0.00 0.00 0.00 58 1016.3
20260831175203 82 294 4.0 8.0 0.00 0.00 0.00 57 1016.4
20260831175024 82 296 4.0 8.0 0.00 0.00 0.00 57 1016.4
20260831174803 82 295 3.0 8.0 0.00 0.00 0.00 57 1016.4
20260831174603 82 297 3.0 8.0 0.00 0.00 0.00 58 1016.5
20260831174403 82 299 3.0 8.0 0.00 0.00 0.00 57 1016.5
20260831174203 81 300 3.0 8.0 0.00 0.00 0.00 58 1016.5
20260831174003 81 298 3.0 8.0 0.00 0.00 0.00 59 1016.6
20260831173824 81 299 3.0 9.0 0.00 0.00 0.00 59 1016.6
20260831173603 80 297 3.0 9.0 0.00 0.00 0.00 59 1016.6
20260831173403 80 296 3.0 9.0 0.00 0.00 0.00 61 1016.6
20260831173224 80 297 3.0 9.0 0.00 0.00 0.00 60 1016.7
20260831173003 80 299 3.0 9.0 0.00 0.00 0.00 59 1016.8
20260831172824 80 302 3.0 9.0 0.00 0.00 0.00 60 1016.8
20260831172603 80 305 2.0 7.0 0.00 0.00 0.00 60 1017.0
20260831172403 80 304 3.0 7.0 0.00 0.00 0.00 59 1017.0
20260831172203 80 303 3.0 7.0 0.00 0.00 0.00 59 1017.1
20260831172003 80 301 3.0 7.0 0.00 0.00 0.00 60 1017.0
20260831171824 80 297 3.0 7.0 0.00 0.00 0.00 60 1017.0
20260831171603 80 296 3.0 7.0 0.00 0.00 0.00 59 1017.1
20260831171403 80 295 3.0 7.0 0.00 0.00 0.00 59 1017.1
20260831171203 80 294 2.0 7.0 0.00 0.00 0.00 59 1017.1
20260831171003 80 295 2.0 7.0 0.00 0.00 0.00 59 1017.0
20260831170803 80 295 2.0 7.0 0.00 0.00 0.00 59 1017.0
20260831170603 80 295 2.0 7.0 0.00 0.00 0.00 58 1016.9
20260831170403 80 297 2.0 7.0 0.00 0.00 0.00 59 1017.0
20260831170203 80 296 2.0 7.0 0.00 0.00 0.00 58 1017.1
20260831170003 80 295 2.0 7.0 0.00 0.00 0.00 59 1017.1
20260831165803 80 296 2.0 8.0 0.00 0.00 0.00 58 1017.2
20260831165603 80 296 3.0 8.0 0.00 0.00 0.00 59 1017.3
20260831165403 80 295 3.0 8.0 0.00 0.00 0.00 58 1017.3
20260831165203 80 294 3.0 8.0 0.00 0.00 0.00 58 1017.2
20260831165003 80 294 3.0 8.0 0.00 0.00 0.00 58 1017.2
20260831164803 80 294 2.0 7.0 0.00 0.00 0.00 59 1017.2
20260831164603 80 294 2.0 7.0 0.00 0.00 0.00 58 1017.2
20260831164403 80 293 1.0 7.0 0.00 0.00 0.00 59 1017.3
20260831164203 80 295 0.0 7.0 0.00 0.00 0.00 59 1017.3
20260831164003 80 295 0.0 6.0 0.00 0.00 0.00 60 1017.3
20260831163803 80 294 0.0 6.0 0.00 0.00 0.00 60 1017.2
20260831163624 79 291 0.0 6.0 0.00 0.00 0.00 60 1017.3
20260831163403 79 294 0.0 2.0 0.00 0.00 0.00 60 1017.3
20260831163203 79 298 0.0 2.0 0.00 0.00 0.00 60 1017.3
20260831163024 79 296 0.0 2.0 0.00 0.00 0.00 59 1017.3
20260831162803 79 303 0.0 1.0 0.00 0.00 0.00 60 1017.3
20260831162603 79 319 0.0 5.0 0.00 0.00 0.00 60 1017.4
20260831162424 79 315 1.0 5.0 0.00 0.00 0.00 61 1017.4
20260831162203 78 310 1.0 5.0 0.00 0.00 0.00 60 1017.4
20260831162003 78 310 1.0 5.0 0.00 0.00 0.00 60 1017.4
20260831161803 78 317 1.0 5.0 0.00 0.00 0.00 60 1017.5
20260831161603 78 309 1.0 6.0 0.00 0.00 0.00 59 1017.5
20260831161403 78 306 1.0 6.0 0.00 0.00 0.00 60 1017.6
20260831161203 78 307 1.0 6.0 0.00 0.01 0.00 60 1017.6
20260831161003 78 307 1.0 6.0 0.00 0.01 0.00 60 1017.5
20260831160803 78 299 1.0 6.0 0.00 0.01 0.00 60 1017.4
20260831160603 78 302 1.0 5.0 0.00 0.01 0.00 61 1017.5
20260831160403 78 312 1.0 6.0 0.00 0.02 0.00 60 1017.5
20260831160203 78 313 1.0 6.0 0.00 0.02 0.00 60 1017.6
20260831160024 78 313 1.0 6.0 0.00 0.03 0.00 61 1017.8
20260831155803 78 312 2.0 6.0 0.00 0.03 0.00 61 1017.8
20260831155603 78 308 2.0 8.0 0.00 0.03 0.00 60 1017.8
20260831155424 78 306 2.0 8.0 0.00 0.04 0.00 60 1017.8
20260831155203 78 303 3.0 8.0 0.00 0.04 0.00 60 1017.8
20260831155003 78 303 4.0 8.0 0.00 0.04 0.00 61 1017.8
20260831154803 78 303 3.0 8.0 0.00 0.04 0.00 60 1017.7
20260831154603 78 304 3.0 7.0 0.00 0.04 0.00 61 1017.7
20260831154403 78 307 3.0 7.0 0.00 0.05 0.00 60 1017.7
20260831154203 78 309 2.0 7.0 0.00 0.05 0.00 60 1017.8
20260831154003 78 312 1.0 7.0 0.00 0.05 0.00 62 1017.7
20260831153803 77 316 1.0 7.0 0.00 0.05 0.00 62 1017.8
20260831153603 77 317 1.0 5.0 0.00 0.06 0.00 63 1017.8
20260831153403 77 310 0.0 5.0 0.00 0.06 0.00 62 1017.7
20260831153224 76 302 0.0 5.0 0.00 0.06 0.00 63 1017.8
20260831153003 76 298 0.0 5.0 0.00 0.07 0.00 63 1017.8
20260831152803 76 297 0.0 5.0 0.00 0.07 0.00 63 1017.8
20260831152603 76 298 1.0 5.0 0.00 0.08 0.00 62 1017.8
20260831152424 76 300 1.0 7.0 0.00 0.08 0.00 62 1017.8
20260831152203 76 302 0.0 7.0 0.00 0.08 0.00 63 1017.9
20260831152003 76 304 0.0 7.0 0.00 0.09 0.00 63 1017.9
20260831151804 76 305 1.0 7.0 0.00 0.10 0.00 62 1017.9
20260831151603 76 304 0.0 7.0 0.00 0.10 0.00 63 1017.8
20260831151424 76 304 0.0 4.0 0.00 0.10 0.00 63 1017.7
20260831151203 76 306 1.0 5.0 0.00 0.11 0.00 63 1017.6
20260831151003 75 307 1.0 5.0 0.00 0.12 0.00 64 1017.7
20260831150803 75 305 1.0 5.0 0.00 0.12 0.00 64 1017.8
20260831150603 75 305 1.0 5.0 0.00 0.12 0.00 64 1017.8
20260831150403 75 305 1.0 5.0 0.00 0.13 0.00 64 1017.9
20260831150203 74 304 1.0 5.0 0.00 0.13 0.00 65 1017.9
20260831150024 74 301 0.0 5.0 0.00 0.13 0.00 64 1017.9
20260831145803 74 298 0.0 4.0 0.00 0.14 0.00 65 1017.8
20260831145624 74 301 0.0 2.0 0.00 0.14 0.00 66 1017.8
20260831145403 74 286 0.0 1.0 0.00 0.14 0.00 66 1017.6
20260831145203 73 0 0.0 0.0 0.00 0.14 0.00 66 1017.6
20260831145003 73 0 0.0 0.0 0.00 0.14 0.00 67 1017.6
20260831144803 73 0 0.0 0.0 0.00 0.14 0.00 67 1017.6
20260831144603 73 0 0.0 0.0 0.00 0.15 0.00 67 1017.4
20260831144403 73 0 0.0 0.0 0.00 0.15 0.00 67 1017.3
20260831144203 73 0 0.0 0.0 0.00 0.15 0.00 67 1017.3
20260831144024 73 0 0.0 0.0 0.00 0.16 0.00 67 1017.2
20260831143803 73 0 0.0 0.0 0.00 0.16 0.00 67 1017.1
20260831143624 73 0 0.0 0.0 0.00 0.16 0.00 67 1017.0
20260831143403 73 0 0.0 0.0 0.00 0.17 0.00 67 1017.0
20260831143203 73 0 0.0 0.0 0.00 0.17 0.00 67 1017.0
20260831143003 72 0 0.0 0.0 0.00 0.18 0.00 67 1017.0
20260831142803 72 0 0.0 0.0 0.00 0.18 0.00 67 1017.0
20260831142603 72 0 0.0 0.0 0.00 0.19 0.00 67 1017.0
20260831142403 72 0 0.0 0.0 0.00 0.19 0.00 67 1017.0
20260831142203 72 0 0.0 0.0 0.00 0.20 0.00 67 1017.0
20260831142003 72 0 0.0 0.0 0.00 0.20 0.00 67 1017.1
20260831141804 72 0 0.0 0.0 0.00 0.20 0.00 67 1017.1
20260831141603 73 0 0.0 0.0 0.00 0.21 0.00 67 1017.1
20260831141403 73 0 0.0 0.0 0.00 0.21 0.00 67 1017.1
20260831141224 73 0 0.0 0.0 0.00 0.21 0.00 67 1017.2
20260831141004 73 0 0.0 0.0 0.00 0.22 0.00 66 1017.2
20260831140804 73 0 0.0 0.0 0.00 0.22 0.00 66 1017.2
20260831140624 73 0 0.0 0.0 0.00 0.22 0.00 66 1017.2
20260831140403 73 0 0.0 0.0 0.00 0.22 0.00 67 1017.3
20260831140203 73 0 0.0 0.0 0.00 0.22 0.00 67 1017.3
20260831140024 73 0 0.0 0.0 0.00 0.22 0.00 67 1017.2
20260831135803 73 0 0.0 0.0 0.00 0.22 0.00 67 1017.3
20260831135603 73 0 0.0 0.0 0.00 0.22 0.00 66 1017.3
20260831135403 73 0 0.0 0.0 0.00 0.22 0.00 66 1017.3
20260831135204 73 0 0.0 0.0 0.00 0.22 0.00 66 1017.3
20260831135003 73 0 0.0 0.0 0.00 0.22 0.00 66 1017.3
20260831134804 73 0 0.0 0.0 0.00 0.22 0.00 66 1017.3
20260831134603 73 0 0.0 0.0 0.00 0.23 0.00 66 1017.3
20260831134403 73 0 0.0 0.0 0.00 0.23 0.00 66 1017.3
20260831134203 73 0 0.0 0.0 0.00 0.23 0.00 66 1017.3
20260831134004 73 0 0.0 0.0 0.00 0.23 0.00 66 1017.3
20260831133803 73 0 0.0 0.0 0.00 0.23 0.00 65 1017.2
20260831133624 73 285 0.0 1.0 0.00 0.24 0.00 65 1017.2
20260831133403 73 285 0.0 1.0 0.00 0.24 0.00 66 1017.2
20260831133203 73 285 0.0 1.0 0.00 0.24 0.00 66 1017.3
20260831133004 73 289 0.0 2.0 0.00 0.24 0.00 66 1017.2
20260831132803 73 289 0.0 2.0 0.00 0.24 0.00 66 1017.2
20260831132603 72 297 0.0 2.0 0.00 0.24 0.00 66 1017.2
20260831132403 72 295 0.0 2.0 0.00 0.24 0.00 67 1017.2
20260831132204 72 295 0.0 2.0 0.00 0.25 0.00 66 1017.2
20260831132003 72 294 0.0 1.0 0.00 0.25 0.00 67 1017.2
20260831131803 72 294 0.0 1.0 0.00 0.25 0.00 67 1017.2
20260831131603 72 294 0.0 1.0 0.00 0.25 0.00 66 1017.2
20260831131425 72 0 0.0 0.0 0.00 0.25 0.00 67 1017.1
20260831131203 72 0 0.0 0.0 0.00 0.25 0.00 67 1017.0
20260831131004 72 0 0.0 0.0 0.00 0.25 0.00 67 1016.9
20260831130803 72 0 0.0 0.0 0.00 0.26 0.00 67 1016.8
20260831130603 72 0 0.0 0.0 0.00 0.26 0.00 67 1016.9
20260831130403 72 0 0.0 0.0 0.00 0.26 0.00 68 1016.9
20260831130203 72 0 0.0 0.0 0.00 0.26 0.00 68 1017.0
20260831130003 72 0 0.0 0.0 0.00 0.26 0.00 68 1017.0
20260831125803 72 0 0.0 0.0 0.00 0.26 0.00 68 1017.1
20260831125603 72 0 0.0 0.0 0.00 0.26 0.00 68 1017.1
20260831125403 72 0 0.0 0.0 0.00 0.27 0.00 68 1017.0
20260831125203 72 0 0.0 0.0 0.00 0.27 0.00 68 1017.1
20260831125024 72 0 0.0 0.0 0.00 0.27 0.00 68 1017.1
20260831124803 72 0 0.0 0.0 0.00 0.27 0.00 67 1017.1
20260831124624 72 0 0.0 0.0 0.00 0.27 0.00 68 1017.0
20260831124424 72 0 0.0 0.0 0.00 0.27 0.00 68 1017.0
20260831124203 72 0 0.0 0.0 0.00 0.27 0.00 68 1016.9
20260831124003 72 0 0.0 0.0 0.00 0.27 0.00 68 1016.9
20260831123803 72 0 0.0 0.0 0.00 0.27 0.00 68 1016.9
20260831123603 72 0 0.0 0.0 0.00 0.27 0.00 68 1016.9
20260831123403 72 0 0.0 0.0 0.00 0.27 0.00 68 1016.8
20260831123203 72 0 0.0 0.0 0.00 0.27 0.00 69 1016.8
20260831123003 72 0 0.0 0.0 0.00 0.27 0.00 68 1016.9
20260831122803 72 0 0.0 0.0 0.00 0.27 0.00 68 1016.9
20260831122624 72 0 0.0 0.0 0.00 0.27 0.00 68 1016.8
20260831122403 72 0 0.0 0.0 0.00 0.27 0.00 69 1016.7
20260831122203 71 0 0.0 0.0 0.00 0.27 0.00 69 1016.7
20260831122003 71 0 0.0 0.0 0.00 0.27 0.00 69 1016.6
20260831121803 71 0 0.0 0.0 0.00 0.27 0.00 69 1016.6
20260831121603 71 0 0.0 0.0 0.00 0.27 0.00 69 1016.5
20260831121403 71 0 0.0 0.0 0.00 0.27 0.00 69 1016.5
20260831121203 71 0 0.0 0.0 0.00 0.27 0.00 69 1016.5
20260831121024 71 0 0.0 0.0 0.00 0.27 0.00 69 1016.4
20260831120803 71 0 0.0 0.0 0.00 0.27 0.00 69 1016.5
20260831120624 71 0 0.0 0.0 0.00 0.27 0.00 69 1016.4
20260831120403 71 0 0.0 0.0 0.00 0.27 0.00 69 1016.4
20260831120203 71 0 0.0 0.0 0.00 0.27 0.00 69 1016.4
20260831120003 71 307 0.0 2.0 0.00 0.27 0.00 69 1016.4
20260831115803 71 306 1.0 2.0 0.00 0.27 0.00 69 1016.4
20260831115603 71 305 1.0 4.0 0.00 0.27 0.00 69 1016.4
20260831115403 71 305 1.0 4.0 0.00 0.27 0.00 69 1016.4
20260831115224 71 305 1.0 4.0 0.00 0.27 0.00 69 1016.4
20260831115003 71 305 1.0 4.0 0.00 0.27 0.00 69 1016.4
20260831114803 71 304 0.0 4.0 0.00 0.27 0.00 69 1016.4
20260831114603 71 0 0.0 0.0 0.00 0.27 0.00 69 1016.4
20260831114403 71 0 0.0 0.0 0.00 0.27 0.00 69 1016.4
20260831114203 71 295 0.0 1.0 0.00 0.27 0.00 69 1016.4
20260831114003 71 291 0.0 3.0 0.00 0.27 0.00 69 1016.5
20260831113803 71 291 0.0 3.0 0.00 0.27 0.00 69 1016.5
20260831113603 71 291 0.0 3.0 0.00 0.27 0.00 69 1016.5
20260831113403 71 291 0.0 3.0 0.00 0.27 0.00 69 1016.5
20260831113224 71 291 0.0 3.0 0.00 0.27 0.00 69 1016.4
20260831113003 71 0 0.0 0.0 0.00 0.27 0.00 70 1016.4
20260831112803 71 0 0.0 0.0 0.00 0.27 0.00 70 1016.4
20260831112603 71 0 0.0 0.0 0.00 0.27 0.00 70 1016.4
20260831112403 71 0 0.0 0.0 0.00 0.27 0.00 70 1016.4
20260831112203 71 0 0.0 0.0 0.00 0.27 0.00 70 1016.4
20260831112003 71 0 0.0 0.0 0.00 0.27 0.00 70 1016.4
20260831111804 71 0 0.0 0.0 0.00 0.27 0.00 70 1016.4
20260831111603 71 0 0.0 0.0 0.00 0.27 0.00 71 1016.3
20260831111403 70 305 0.0 1.0 0.00 0.27 0.00 71 1016.2
20260831111203 70 305 0.0 2.0 0.00 0.27 0.00 71 1016.2
20260831111003 70 306 0.0 2.0 0.00 0.27 0.00 71 1016.2
20260831110804 70 309 1.0 2.0 0.00 0.27 0.00 71 1016.2
20260831110603 70 309 1.0 2.0 0.00 0.27 0.00 71 1016.2
20260831110403 70 309 0.0 2.0 0.00 0.27 0.00 72 1016.2
20260831110203 70 312 0.0 2.0 0.00 0.27 0.00 72 1016.2
20260831110003 70 312 0.0 2.0 0.00 0.27 0.00 72 1016.2
20260831105803 70 0 0.0 0.0 0.00 0.27 0.00 72 1016.2
20260831105603 69 0 0.0 0.0 0.00 0.27 0.00 72 1016.2
20260831105404 69 0 0.0 0.0 0.00 0.27 0.00 72 1016.2
20260831105224 69 0 0.0 0.0 0.00 0.27 0.00 71 1016.2
20260831105003 69 0 0.0 0.0 0.00 0.27 0.00 71 1016.3
20260831104803 69 0 0.0 0.0 0.00 0.27 0.00 71 1016.3
20260831104603 69 0 0.0 0.0 0.00 0.27 0.00 71 1016.3
20260831104403 69 0 0.0 0.0 0.00 0.27 0.00 71 1016.3
20260831104224 69 0 0.0 0.0 0.00 0.27 0.00 72 1016.4
20260831104003 69 0 0.0 0.0 0.00 0.27 0.00 72 1016.5
20260831103824 69 0 0.0 0.0 0.00 0.27 0.00 72 1016.5
20260831103603 69 0 0.0 0.0 0.00 0.27 0.00 72 1016.5
20260831103403 69 0 0.0 0.0 0.00 0.27 0.00 72 1016.5
20260831103203 69 0 0.0 0.0 0.00 0.27 0.00 72 1016.5
20260831103024 69 0 0.0 0.0 0.00 0.27 0.00 72 1016.6
20260831102803 69 0 0.0 0.0 0.00 0.27 0.00 73 1016.6
20260831102603 68 0 0.0 0.0 0.00 0.27 0.00 72 1016.6
20260831102403 68 0 0.0 0.0 0.00 0.27 0.00 72 1016.6
20260831102224 68 0 0.0 0.0 0.00 0.27 0.00 72 1016.5
20260831102003 68 0 0.0 0.0 0.00 0.27 0.00 72 1016.5
20260831101803 68 0 0.0 0.0 0.00 0.27 0.00 72 1016.5
20260831101603 68 0 0.0 0.0 0.00 0.27 0.00 72 1016.6
20260831101403 68 0 0.0 0.0 0.00 0.27 0.00 72 1016.6
20260831101203 68 0 0.0 0.0 0.00 0.27 0.00 72 1016.6
20260831101024 68 0 0.0 0.0 0.00 0.27 0.00 72 1016.6
20260831100803 68 0 0.0 0.0 0.00 0.27 0.00 72 1016.6
20260831100603 68 0 0.0 0.0 0.00 0.27 0.00 72 1016.6
20260831100403 68 0 0.0 0.0 0.00 0.27 0.00 72 1016.6
20260831100203 68 0 0.0 0.0 0.00 0.27 0.00 72 1016.6
20260831100003 68 0 0.0 0.0 0.00 0.27 0.00 72 1016.5
20260831095803 68 0 0.0 0.0 0.00 0.27 0.00 72 1016.5
20260831095603 68 0 0.0 0.0 0.00 0.27 0.00 71 1016.4
20260831095403 68 0 0.0 0.0 0.00 0.27 0.00 71 1016.5
20260831095203 68 0 0.0 0.0 0.00 0.27 0.00 71 1016.4
20260831095003 68 0 0.0 0.0 0.00 0.28 0.00 70 1016.5
20260831094803 68 0 0.0 0.0 0.00 0.28 0.00 70 1016.5
20260831094603 68 0 0.0 0.0 0.00 0.28 0.00 70 1016.5
20260831094403 68 0 0.0 0.0 0.00 0.29 0.00 70 1016.5
20260831094203 68 0 0.0 0.0 0.00 0.29 0.00 71 1016.4
20260831094024 68 0 0.0 0.0 0.00 0.29 0.00 71 1016.4
20260831093803 68 0 0.0 0.0 0.00 0.29 0.00 70 1016.5
20260831093603 68 0 0.0 0.0 0.00 0.29 0.00 70 1016.6
20260831093403 68 0 0.0 0.0 0.00 0.29 0.00 70 1016.5
20260831093203 69 0 0.0 0.0 0.00 0.29 0.00 70 1016.6
20260831093024 69 0 0.0 0.0 0.00 0.29 0.00 70 1016.6
20260831092803 69 0 0.0 0.0 0.00 0.29 0.00 70 1016.5
20260831092603 69 0 0.0 0.0 0.00 0.29 0.00 70 1016.6
20260831092403 69 0 0.0 0.0 0.00 0.29 0.00 70 1016.6
20260831092203 69 0 0.0 0.0 0.00 0.29 0.00 70 1016.6
20260831092003 69 0 0.0 0.0 0.00 0.29 0.00 70 1016.6
20260831091803 69 0 0.0 0.0 0.00 0.29 0.00 69 1016.6
20260831091603 69 0 0.0 0.0 0.00 0.29 0.00 69 1016.6
20260831091403 69 0 0.0 0.0 0.00 0.29 0.00 69 1016.6
20260831091203 69 0 0.0 0.0 0.00 0.29 0.00 69 1016.6
20260831091003 69 0 0.0 0.0 0.00 0.29 0.00 69 1016.6
20260831090803 69 0 0.0 0.0 0.00 0.29 0.00 69 1016.7
20260831090603 69 0 0.0 0.0 0.00 0.29 0.00 70 1016.6
20260831090403 69 0 0.0 0.0 0.00 0.29 0.00 70 1016.7
20260831090224 69 0 0.0 0.0 0.00 0.29 0.00 69 1016.6
20260831090024 69 0 0.0 0.0 0.00 0.29 0.00 69 1016.7
20260831085803 69 0 0.0 0.0 0.00 0.29 0.00 69 1016.7
20260831085603 70 0 0.0 0.0 0.00 0.29 0.00 69 1016.7
20260831085403 70 0 0.0 0.0 0.00 0.29 0.00 69 1016.6
20260831085224 70 0 0.0 0.0 0.00 0.29 0.00 69 1016.6
20260831085024 70 0 0.0 0.0 0.00 0.29 0.00 69 1016.7
20260831084824 70 0 0.0 0.0 0.00 0.29 0.00 68 1016.7
20260831084603 70 0 0.0 0.0 0.00 0.29 0.00 68 1016.6
20260831084403 70 0 0.0 0.0 0.00 0.29 0.00 68 1016.6
20260831084203 70 0 0.0 0.0 0.00 0.29 0.00 68 1016.6
20260831084003 70 0 0.0 0.0 0.00 0.29 0.00 68 1016.6
20260831083803 70 0 0.0 0.0 0.00 0.29 0.00 68 1016.6
20260831083603 70 0 0.0 0.0 0.00 0.29 0.00 69 1016.5
20260831083403 70 0 0.0 0.0 0.00 0.29 0.00 69 1016.5
20260831083203 70 0 0.0 0.0 0.00 0.29 0.00 68 1016.5
20260831083003 70 0 0.0 0.0 0.00 0.29 0.00 68 1016.5
20260831082824 71 0 0.0 0.0 0.00 0.29 0.00 68 1016.4
20260831082603 71 0 0.0 0.0 0.00 0.29 0.00 68 1016.4
20260831082424 71 0 0.0 0.0 0.00 0.29 0.00 68 1016.4
20260831082224 71 0 0.0 0.0 0.00 0.29 0.00 68 1016.4
20260831082003 71 0 0.0 0.0 0.00 0.29 0.00 68 1016.4
20260831081803 71 0 0.0 0.0 0.00 0.29 0.00 68 1016.4
20260831081603 71 0 0.0 0.0 0.00 0.29 0.00 68 1016.4
20260831081403 71 0 0.0 0.0 0.00 0.29 0.00 68 1016.3
20260831081203 71 0 0.0 0.0 0.00 0.29 0.00 69 1016.4
20260831081003 71 0 0.0 0.0 0.00 0.29 0.00 69 1016.4
20260831080803 71 0 0.0 0.0 0.00 0.29 0.00 69 1016.4
20260831080603 71 0 0.0 0.0 0.00 0.29 0.00 69 1016.4
20260831080403 71 0 0.0 0.0 0.00 0.29 0.00 69 1016.3
20260831080203 71 0 0.0 0.0 0.00 0.29 0.00 68 1016.3
20260831080003 71 0 0.0 0.0 0.00 0.29 0.00 68 1016.3
20260831075803 71 0 0.0 0.0 0.00 0.29 0.00 68 1016.3
20260831075603 71 0 0.0 0.0 0.00 0.29 0.00 68 1016.3
20260831075424 71 0 0.0 0.0 0.00 0.29 0.00 68 1016.4
20260831075203 71 0 0.0 0.0 0.00 0.29 0.00 68 1016.4
20260831075003 71 0 0.0 0.0 0.00 0.29 0.00 68 1016.4
20260831074803 71 0 0.0 0.0 0.00 0.29 0.00 68 1016.4
20260831074624 71 0 0.0 0.0 0.00 0.29 0.00 68 1016.4
20260831074403 71 0 0.0 0.0 0.00 0.29 0.00 68 1016.4
20260831074224 71 0 0.0 0.0 0.00 0.29 0.00 68 1016.4
20260831074003 72 0 0.0 0.0 0.00 0.29 0.00 68 1016.4
20260831073803 72 0 0.0 0.0 0.00 0.29 0.00 68 1016.4
20260831073603 72 0 0.0 0.0 0.00 0.29 0.00 68 1016.4
20260831073403 72 0 0.0 0.0 0.00 0.29 0.00 69 1016.4
20260831073203 71 0 0.0 0.0 0.00 0.29 0.00 69 1016.4
20260831073003 71 0 0.0 0.0 0.00 0.29 0.00 69 1016.4
20260831072803 71 0 0.0 0.0 0.00 0.29 0.00 69 1016.4
20260831072603 71 0 0.0 0.0 0.00 0.29 0.00 69 1016.3
20260831072403 71 0 0.0 0.0 0.00 0.29 0.00 69 1016.3
20260831072203 71 0 0.0 0.0 0.00 0.29 0.00 69 1016.4
20260831072003 71 0 0.0 0.0 0.00 0.29 0.00 69 1016.3
20260831071803 71 0 0.0 0.0 0.00 0.29 0.00 69 1016.3
20260831071603 71 0 0.0 0.0 0.00 0.29 0.00 69 1016.3
20260831071403 71 0 0.0 0.0 0.00 0.29 0.00 69 1016.3
20260831071203 71 0 0.0 0.0 0.00 0.29 0.00 69 1016.3
20260831071003 71 0 0.0 0.0 0.00 0.29 0.00 69 1016.3
20260831070803 71 0 0.0 0.0 0.00 0.29 0.00 69 1016.3
20260831070603 71 0 0.0 0.0 0.00 0.29 0.00 69 1016.3
20260831070403 71 0 0.0 0.0 0.00 0.29 0.00 69 1016.3
20260831070203 71 0 0.0 0.0 0.00 0.29 0.00 69 1016.3
20260831070003 71 0 0.0 0.0 0.00 0.29 0.00 69 1016.3
20260831065803 71 0 0.0 0.0 0.00 0.29 0.00 69 1016.3
20260831065603 71 0 0.0 0.0 0.00 0.29 0.00 69 1016.3
20260831065403 71 0 0.0 0.0 0.00 0.29 0.00 69 1016.4
20260831065203 71 0 0.0 0.0 0.00 0.29 0.00 69 1016.4
20260831065003 71 314 0.0 1.0 0.00 0.29 0.00 69 1016.4
20260831064803 71 313 0.0 2.0 0.00 0.29 0.00 69 1016.3
20260831064603 71 310 0.0 2.0 0.00 0.29 0.00 69 1016.4
20260831064424 71 307 0.0 2.0 0.00 0.29 0.00 69 1016.4
20260831064203 71 305 0.0 2.0 0.00 0.29 0.00 69 1016.5
20260831064003 71 302 0.0 2.0 0.00 0.29 0.00 69 1016.5
20260831063803 71 298 0.0 2.0 0.00 0.29 0.00 69 1016.5
20260831063603 71 295 0.0 2.0 0.00 0.29 0.00 69 1016.5
20260831063424 71 295 0.0 2.0 0.00 0.29 0.00 69 1016.5
20260831063203 71 294 0.0 2.0 0.00 0.29 0.00 69 1016.5
20260831063003 71 279 0.0 1.0 0.00 0.29 0.00 69 1016.5
20260831062803 71 259 0.0 1.0 0.00 0.29 0.00 69 1016.5
20260831062603 71 259 0.0 1.0 0.00 0.29 0.00 69 1016.6
20260831062403 71 259 0.0 1.0 0.00 0.29 0.00 69 1016.7
20260831062203 71 259 0.0 1.0 0.00 0.29 0.00 69 1016.7
20260831062003 71 259 0.0 1.0 0.00 0.29 0.00 69 1016.7
20260831061824 72 259 0.0 1.0 0.00 0.29 0.00 68 1016.8
20260831061603 72 259 0.0 1.0 0.00 0.29 0.00 68 1016.8
20260831061403 72 259 0.0 1.0 0.00 0.29 0.00 68 1016.8
20260831061203 72 259 0.0 1.0 0.00 0.29 0.00 68 1016.8
20260831061003 72 259 0.0 1.0 0.00 0.29 0.00 68 1016.8
20260831060824 72 259 0.0 1.0 0.00 0.29 0.00 68 1016.8
20260831060603 72 259 0.0 1.0 0.00 0.29 0.00 68 1016.8
20260831060403 72 259 0.0 1.0 0.00 0.29 0.00 68 1016.8
20260831060224 72 259 0.0 1.0 0.00 0.29 0.00 68 1016.8
20260831060003 72 259 0.0 1.0 0.00 0.29 0.00 68 1016.7
20260831055804 72 259 0.0 1.0 0.00 0.29 0.00 68 1016.8
20260831055603 72 259 0.0 1.0 0.00 0.29 0.00 68 1016.9
20260831055403 72 259 0.0 1.0 0.00 0.29 0.00 68 1017.0
20260831055224 72 240 0.0 3.0 0.00 0.29 0.00 68 1017.0
20260831055003 72 227 0.0 3.0 0.00 0.29 0.00 68 1017.0
20260831054803 72 221 0.0 3.0 0.00 0.29 0.00 68 1017.0
20260831054603 72 217 0.0 3.0 0.00 0.29 0.00 68 1017.0
20260831054403 72 216 0.0 3.0 0.00 0.29 0.00 68 1016.9
20260831054203 72 202 0.0 1.0 0.00 0.29 0.00 68 1016.9
20260831054003 72 207 0.0 1.0 0.00 0.29 0.00 68 1016.9
20260831053803 72 251 0.0 1.0 0.00 0.29 0.00 68 1016.8
20260831053603 72 270 0.0 1.0 0.00 0.29 0.00 68 1016.9
20260831053403 72 279 0.0 1.0 0.00 0.29 0.00 68 1016.9
20260831053203 72 289 0.0 2.0 0.00 0.29 0.00 68 1017.0
20260831053003 72 289 0.0 2.0 0.00 0.29 0.00 68 1017.0
20260831052803 72 288 0.0 2.0 0.00 0.29 0.00 68 1017.0
20260831052603 72 288 0.0 2.0 0.00 0.29 0.00 68 1017.1
20260831052424 72 288 0.0 2.0 0.00 0.29 0.00 68 1017.1
20260831052203 72 288 0.0 2.0 0.00 0.29 0.00 68 1017.1
20260831052003 72 288 0.0 2.0 0.00 0.29 0.00 68 1017.2
20260831051803 72 288 0.0 2.0 0.00 0.29 0.00 68 1017.2
20260831051624 72 288 0.0 2.0 0.00 0.29 0.00 68 1017.3
20260831051403 72 287 0.0 2.0 0.00 0.29 0.00 68 1017.3
20260831051203 72 287 0.0 2.0 0.00 0.29 0.00 68 1017.2
20260831051003 72 287 0.0 2.0 0.00 0.29 0.00 67 1017.3
20260831050803 72 289 0.0 2.0 0.00 0.29 0.00 67 1017.2
20260831050603 72 290 0.0 2.0 0.00 0.29 0.00 67 1017.3
20260831050403 72 293 0.0 2.0 0.00 0.29 0.00 67 1017.2
20260831050204 72 295 0.0 2.0 0.00 0.29 0.00 67 1017.3
20260831050004 72 295 1.0 3.0 0.00 0.29 0.00 67 1017.3
20260831045803 72 296 1.0 3.0 0.00 0.29 0.00 67 1017.3
20260831045603 72 296 1.0 3.0 0.00 0.29 0.00 67 1017.3
20260831045403 72 295 1.0 3.0 0.00 0.29 0.00 67 1017.2
20260831045204 72 294 1.0 3.0 0.00 0.29 0.00 67 1017.2
20260831045003 72 293 1.0 2.0 0.00 0.29 0.00 67 1017.2
20260831044803 72 293 1.0 2.0 0.00 0.29 0.00 67 1017.2
20260831044625 73 293 1.0 2.0 0.00 0.29 0.00 67 1017.1
20260831044404 72 293 0.0 2.0 0.00 0.29 0.00 67 1017.0
20260831044203 72 292 0.0 2.0 0.00 0.29 0.00 67 1017.0
20260831044003 72 291 1.0 3.0 0.00 0.29 0.00 67 1017.0
20260831043803 72 292 1.0 3.0 0.00 0.29 0.00 67 1017.0
20260831043604 72 294 1.0 3.0 0.00 0.29 0.00 67 1016.9
20260831043425 72 293 1.0 3.0 0.00 0.29 0.00 67 1016.9
20260831043203 73 292 1.0 3.0 0.00 0.29 0.00 67 1016.9
20260831043024 72 293 1.0 3.0 0.00 0.29 0.00 67 1016.8
20260831042803 73 290 1.0 3.0 0.00 0.29 0.00 67 1016.9
20260831042624 73 288 1.0 3.0 0.00 0.29 0.00 67 1016.9
20260831042403 73 283 1.0 3.0 0.00 0.29 0.00 67 1017.0
20260831042203 73 280 1.0 3.0 0.00 0.29 0.00 67 1017.0
20260831042003 72 280 1.0 3.0 0.00 0.29 0.00 67 1017.0
20260831041803 73 281 1.0 3.0 0.00 0.29 0.00 67 1016.9
20260831041624 73 283 1.0 3.0 0.00 0.29 0.00 66 1016.9
20260831041403 73 286 1.0 3.0 0.00 0.29 0.00 67 1016.8
20260831041203 73 290 1.0 3.0 0.00 0.29 0.00 66 1016.9
20260831040803 73 288 0.0 3.0 0.00 0.29 0.00 67 1016.9
20260831040604 72 289 0.0 3.0 0.00 0.29 0.00 67 1016.9
20260831040425 72 285 0.0 3.0 0.00 0.29 0.00 67 1016.9
20260831040224 72 283 0.0 3.0 0.00 0.29 0.00 67 1017.0
20260831040003 72 286 0.0 3.0 0.00 0.29 0.00 67 1017.0
20260831035803 72 292 0.0 2.0 0.00 0.29 0.29 67 1017.1
20260831035603 72 295 1.0 3.0 0.00 0.29 0.29 67 1017.1
20260831035403 72 294 1.0 3.0 0.00 0.29 0.29 67 1017.2
20260831035225 72 294 1.0 3.0 0.00 0.29 0.29 67 1017.3
20260831035003 72 294 0.0 3.0 0.00 0.29 0.29 67 1017.3
20260831034824 72 292 0.0 3.0 0.00 0.29 0.29 67 1017.3
20260831034603 72 281 0.0 3.0 0.00 0.29 0.29 67 1017.2
20260831034424 72 272 0.0 2.0 0.00 0.29 0.29 67 1017.2
20260831034203 72 272 0.0 2.0 0.00 0.29 0.29 67 1017.3
20260831034003 72 273 0.0 2.0 0.00 0.29 0.29 67 1017.3
20260831033824 72 275 0.0 2.0 0.00 0.29 0.29 67 1017.3
20260831033603 72 277 0.0 2.0 0.00 0.29 0.29 67 1017.2
20260831033403 72 278 0.0 1.0 0.00 0.29 0.29 67 1017.2
20260831033203 72 278 0.0 1.0 0.00 0.29 0.29 68 1017.5
20260831033003 72 278 0.0 1.0 0.00 0.29 0.29 68 1017.5
20260831032803 72 0 0.0 0.0 0.00 0.29 0.29 68 1017.5
20260831032603 72 0 0.0 0.0 0.00 0.29 0.29 68 1017.4
20260831032403 72 0 0.0 0.0 0.00 0.29 0.29 68 1017.4
20260831032203 72 0 0.0 0.0 0.00 0.29 0.29 68 1017.4
20260831032003 72 0 0.0 0.0 0.00 0.29 0.29 68 1017.4
20260831031803 72 0 0.0 0.0 0.00 0.29 0.29 68 1017.4
20260831031603 72 278 0.0 1.0 0.00 0.29 0.29 68 1017.4
20260831031403 72 278 0.0 1.0 0.00 0.29 0.29 67 1017.5
20260831031224 72 278 0.0 1.0 0.00 0.29 0.29 67 1017.5
20260831031003 72 278 0.0 1.0 0.00 0.29 0.29 68 1017.5
20260831030803 72 278 0.0 1.0 0.00 0.29 0.29 68 1017.5
20260831030603 72 0 0.0 0.0 0.00 0.29 0.29 68 1017.5
20260831030404 72 0 0.0 0.0 0.00 0.29 0.29 68 1017.5
20260831030203 71 0 0.0 0.0 0.00 0.29 0.29 69 1017.5
20260831030003 71 0 0.0 0.0 0.00 0.29 0.29 68 1017.5
20260831025803 71 0 0.0 0.0 0.00 0.29 0.29 68 1017.5
20260831025603 71 0 0.0 0.0 0.00 0.29 0.29 68 1017.4
20260831025403 71 278 0.0 1.0 0.00 0.29 0.29 68 1017.4
20260831025203 71 278 0.0 1.0 0.00 0.29 0.29 68 1017.3
20260831025003 71 278 0.0 1.0 0.00 0.29 0.29 68 1017.3
20260831024803 71 278 0.0 1.0 0.00 0.29 0.29 68 1017.4
20260831024603 71 278 0.0 1.0 0.00 0.29 0.29 68 1017.4
20260831024403 72 278 0.0 1.0 0.00 0.29 0.29 68 1017.4
20260831024203 72 278 0.0 1.0 0.00 0.29 0.29 68 1017.4
20260831024003 72 278 0.0 1.0 0.00 0.29 0.29 67 1017.4
20260831023803 72 0 0.0 0.0 0.00 0.29 0.29 67 1017.4
20260831023603 72 0 0.0 0.0 0.00 0.29 0.29 67 1017.4
20260831023403 72 0 0.0 0.0 0.00 0.29 0.29 68 1017.4
20260831023203 72 0 0.0 0.0 0.00 0.29 0.29 68 1017.3
20260831023003 72 0 0.0 0.0 0.00 0.29 0.29 68 1017.3
20260831022803 72 312 0.0 1.0 0.00 0.29 0.29 68 1017.3
20260831022603 72 312 0.0 1.0 0.00 0.29 0.29 68 1017.3
20260831022403 72 312 0.0 1.0 0.00 0.29 0.29 68 1017.3
20260831022203 72 312 1.0 3.0 0.00 0.29 0.29 68 1017.3
20260831022004 72 313 1.0 3.0 0.00 0.29 0.29 68 1017.3
20260831021824 72 312 1.0 3.0 0.00 0.29 0.29 68 1017.3
20260831021603 72 307 2.0 4.0 0.00 0.29 0.29 68 1017.2
20260831021404 72 303 2.0 5.0 0.00 0.29 0.29 67 1017.2
20260831021203 72 299 3.0 5.0 0.00 0.29 0.29 68 1017.2
20260831021003 72 296 3.0 5.0 0.00 0.29 0.29 68 1017.1
20260831020804 72 295 3.0 5.0 0.00 0.29 0.29 68 1017.1
20260831020625 72 295 3.0 6.0 0.00 0.29 0.29 68 1017.0
20260831020403 72 295 3.0 6.0 0.00 0.29 0.29 68 1017.0
20260831020204 72 296 2.0 6.0 0.00 0.29 0.29 68 1017.0
20260831020003 72 299 2.0 6.0 0.00 0.29 0.29 67 1017.1
20260831015803 72 300 2.0 6.0 0.00 0.29 0.29 67 1017.1
20260831015603 72 299 2.0 4.0 0.00 0.29 0.29 67 1017.1
20260831015403 72 297 2.0 4.0 0.00 0.29 0.29 67 1017.1
20260831015224 72 297 2.0 4.0 0.00 0.29 0.29 67 1017.0
20260831015003 72 294 2.0 4.0 0.00 0.29 0.29 67 1017.0
20260831014803 72 292 2.0 4.0 0.00 0.29 0.29 67 1016.9
20260831014603 73 291 2.0 4.0 0.00 0.29 0.29 66 1016.9
20260831014403 73 294 1.0 4.0 0.00 0.29 0.29 66 1016.8
20260831014203 73 295 2.0 4.0 0.00 0.29 0.29 66 1016.8
20260831014004 73 298 2.0 4.0 0.00 0.29 0.29 66 1016.8
20260831013803 73 300 2.0 4.0 0.00 0.29 0.29 66 1016.8
20260831013603 73 304 2.0 4.0 0.00 0.29 0.29 66 1016.8
20260831013403 73 304 2.0 4.0 0.00 0.29 0.29 65 1016.8
20260831013224 73 303 2.0 5.0 0.00 0.29 0.29 65 1016.8
20260831013004 73 301 3.0 6.0 0.00 0.29 0.29 65 1016.7
20260831012803 73 301 3.0 6.0 0.00 0.29 0.29 65 1016.7
20260831012603 73 298 4.0 6.0 0.00 0.29 0.29 65 1016.7
20260831012403 73 298 4.0 6.0 0.00 0.29 0.29 65 1016.7
20260831012203 73 297 3.0 6.0 0.00 0.29 0.29 65 1016.6
20260831012003 73 297 3.0 6.0 0.00 0.29 0.29 65 1016.6
20260831011803 73 297 3.0 6.0 0.00 0.29 0.29 64 1016.6
20260831011603 73 298 3.0 5.0 0.00 0.29 0.29 65 1016.5
20260831011403 73 300 3.0 6.0 0.00 0.29 0.29 65 1016.5
20260831011203 73 300 3.0 6.0 0.00 0.29 0.29 65 1016.5
20260831011003 73 300 3.0 6.0 0.00 0.29 0.29 65 1016.5
20260831010803 73 301 3.0 6.0 0.00 0.29 0.29 65 1016.5
20260831010645 73 302 3.0 6.0 0.00 0.29 0.29 65 1016.4
20260831010403 73 302 3.0 7.0 0.00 0.29 0.29 65 1016.3
20260831010203 73 303 4.0 7.0 0.00 0.29 0.29 65 1016.3
20260831010003 73 303 4.0 7.0 0.00 0.29 0.29 65 1016.4
20260831005803 73 303 4.0 7.0 0.00 0.29 0.29 65 1016.3
20260831005603 74 301 4.0 7.0 0.00 0.29 0.29 65 1016.2
20260831005424 74 299 4.0 7.0 0.00 0.29 0.29 65 1016.2
20260831005203 74 299 4.0 8.0 0.00 0.29 0.29 64 1016.2
20260831005003 74 299 5.0 8.0 0.00 0.29 0.29 64 1016.1
20260831004824 74 299 5.0 8.0 0.00 0.29 0.29 64 1016.1
20260831004603 74 300 5.0 10.0 0.00 0.29 0.29 64 1016.1
20260831004403 74 299 5.0 10.0 0.00 0.29 0.29 64 1016.1
20260831004203 74 298 5.0 10.0 0.00 0.29 0.29 64 1016.1
20260831004003 74 298 5.0 10.0 0.00 0.29 0.29 64 1015.9
20260831003803 74 297 5.0 10.0 0.00 0.29 0.29 64 1015.9
20260831003603 74 297 5.0 10.0 0.00 0.29 0.29 64 1015.9
20260831003424 74 298 5.0 10.0 0.00 0.29 0.29 64 1015.9
20260831003203 74 301 5.0 10.0 0.00 0.29 0.29 64 1015.9
20260831003004 74 301 5.0 10.0 0.00 0.29 0.29 64 1016.0
20260831002803 74 301 5.0 10.0 0.00 0.29 0.29 64 1016.1
20260831002603 74 302 5.0 10.0 0.00 0.29 0.29 63 1016.1
20260831002403 74 301 5.0 10.0 0.00 0.29 0.29 63 1016.1
20260831002203 75 301 5.0 9.0 0.00 0.29 0.29 62 1016.1
20260831002024 75 300 4.0 9.0 0.00 0.29 0.29 63 1016.1
20260831001803 75 303 4.0 7.0 0.00 0.29 0.29 63 1016.2
20260831001603 75 306 4.0 7.0 0.00 0.29 0.29 62 1016.3
20260831001403 75 310 4.0 7.0 0.00 0.29 0.29 63 1016.3
20260831001203 75 313 4.0 7.0 0.00 0.29 0.29 62 1016.3
20260831001003 75 315 3.0 7.0 0.00 0.29 0.29 62 1016.3
20260831000803 75 318 3.0 7.0 0.00 0.29 0.29 62 1016.3
20260831000604 75 317 3.0 6.0 0.00 0.29 0.29 61 1016.3
20260831000403 75 318 2.0 5.0 0.00 0.29 0.29 61 1016.3
20260831000204 75 320 2.0 5.0 0.00 0.29 0.29 61 1016.3
20260831000003 75 328 2.0 4.0 0.00 0.29 0.29 61 1016.3
20260830235804 75 323 2.0 5.0 0.00 0.29 0.29 61 1016.4
20260830235624 75 323 2.0 5.0 0.00 0.29 0.29 61 1016.4
20260830235403 76 323 2.0 5.0 0.00 0.29 0.29 61 1016.4
20260830235203 76 322 2.0 5.0 0.00 0.29 0.29 61 1016.4
20260830235003 76 316 3.0 5.0 0.00 0.29 0.29 60 1016.4
20260830234824 76 317 3.0 6.0 0.00 0.29 0.29 61 1016.4
20260830234624 76 314 3.0 7.0 0.00 0.29 0.29 61 1016.4
20260830234425 76 310 3.0 7.0 0.00 0.29 0.29 60 1016.4
20260830234203 76 311 4.0 7.0 0.00 0.29 0.29 60 1016.3
20260830234003 76 310 3.0 7.0 0.00 0.29 0.29 60 1016.3
20260830233824 76 308 3.0 7.0 0.00 0.29 0.29 60 1016.3
20260830233604 76 309 3.0 6.0 0.00 0.29 0.29 60 1016.4
20260830233403 76 310 4.0 6.0 0.00 0.29 0.29 60 1016.4
20260830233203 76 308 4.0 8.0 0.00 0.29 0.29 59 1016.3
20260830233025 76 307 4.0 8.0 0.00 0.29 0.29 59 1016.4
20260830232803 77 307 4.0 8.0 0.00 0.29 0.29 59 1016.3
20260830232603 77 308 5.0 10.0 0.00 0.29 0.29 59 1016.4
20260830232403 77 307 5.0 10.0 0.00 0.29 0.29 59 1016.3
20260830232203 77 308 5.0 10.0 0.00 0.29 0.29 59 1016.3
20260830232024 77 308 5.0 10.0 0.00 0.29 0.29 59 1016.3
20260830231803 77 310 5.0 10.0 0.00 0.29 0.29 58 1016.4
20260830231603 77 310 4.0 8.0 0.00 0.29 0.29 58 1016.5
20260830231403 77 310 4.0 8.0 0.00 0.29 0.29 59 1016.5
20260830231204 77 312 4.0 7.0 0.00 0.29 0.29 58 1016.5
20260830231003 77 313 4.0 9.0 0.00 0.29 0.29 58 1016.5
20260830230824 77 313 4.0 10.0 0.00 0.29 0.29 58 1016.5
20260830230603 77 316 5.0 10.0 0.00 0.29 0.29 57 1016.4
20260830230404 77 314 5.0 10.0 0.00 0.29 0.29 57 1016.5
20260830230225 78 314 6.0 10.0 0.00 0.29 0.29 58 1016.4
20260830230004 77 314 6.0 12.0 0.00 0.29 0.29 57 1016.4
20260830225803 77 311 6.0 14.0 0.00 0.29 0.29 57 1016.5
20260830225603 77 308 6.0 14.0 0.00 0.29 0.29 57 1016.5
20260830225404 77 310 6.0 14.0 0.00 0.29 0.29 57 1016.5
20260830225203 78 309 6.0 14.0 0.00 0.29 0.29 58 1016.5
20260830225003 78 308 6.0 14.0 0.00 0.29 0.29 58 1016.5
20260830224824 78 308 6.0 13.0 0.00 0.29 0.29 57 1016.5
20260830224603 78 308 7.0 13.0 0.00 0.29 0.29 57 1016.6
20260830224403 78 306 7.0 13.0 0.00 0.29 0.29 56 1016.6
20260830224203 78 308 6.0 13.0 0.00 0.29 0.29 57 1016.6
20260830224003 78 308 6.0 13.0 0.00 0.29 0.29 58 1016.5
20260830223803 78 310 5.0 13.0 0.00 0.29 0.29 57 1016.6
20260830223603 78 311 5.0 13.0 0.00 0.29 0.29 58 1016.6
20260830223403 78 310 5.0 9.0 0.00 0.29 0.29 59 1016.7
20260830223203 78 311 6.0 9.0 0.00 0.29 0.29 58 1016.6
20260830223003 79 313 6.0 10.0 0.00 0.29 0.29 59 1016.7
20260830222803 79 311 6.0 10.0 0.00 0.29 0.29 58 1016.6
20260830222624 79 312 6.0 10.0 0.00 0.29 0.29 57 1016.7
20260830222403 79 314 5.0 10.0 0.00 0.29 0.29 57 1016.7
20260830222203 79 311 6.0 10.0 0.00 0.29 0.29 58 1016.9
20260830222003 79 310 6.0 11.0 0.00 0.29 0.29 57 1016.9
20260830221803 79 308 6.0 12.0 0.00 0.29 0.29 58 1017.0
20260830221603 79 308 6.0 12.0 0.00 0.29 0.29 58 1017.0
20260830221403 79 308 6.0 12.0 0.00 0.29 0.29 58 1016.9
20260830221203 79 307 6.0 12.0 0.00 0.29 0.29 57 1017.0
20260830221003 79 308 6.0 12.0 0.00 0.29 0.29 57 1017.0
20260830220803 79 311 5.0 10.0 0.00 0.29 0.29 57 1017.0
20260830220624 80 311 5.0 10.0 0.00 0.29 0.29 57 1017.0
20260830220403 80 312 5.0 10.0 0.00 0.29 0.29 57 1017.1
20260830220203 80 320 5.0 10.0 0.00 0.29 0.29 57 1017.1
20260830220003 80 316 5.0 10.0 0.00 0.29 0.29 56 1017.0
20260830215803 80 312 5.0 10.0 0.00 0.29 0.29 57 1017.2
20260830215603 80 315 5.0 10.0 0.00 0.29 0.29 57 1017.1
20260830215403 80 312 5.0 10.0 0.00 0.29 0.29 58 1017.2
20260830215203 80 308 5.0 9.0 0.00 0.29 0.29 57 1017.2
20260830215003 80 308 4.0 9.0 0.00 0.29 0.29 57 1017.2
20260830214803 80 307 5.0 8.0 0.00 0.29 0.29 58 1017.3
20260830214603 80 306 4.0 8.0 0.00 0.29 0.29 57 1017.3
20260830214403 80 308 4.0 8.0 0.00 0.29 0.29 58 1017.3
20260830214203 80 307 4.0 8.0 0.00 0.29 0.29 57 1017.3
20260830214024 80 307 4.0 8.0 0.00 0.29 0.29 57 1017.3
20260830213803 80 308 5.0 8.0 0.00 0.29 0.29 57 1017.3
20260830213603 80 308 5.0 8.0 0.00 0.29 0.29 57 1017.3
20260830213403 80 308 5.0 10.0 0.00 0.29 0.29 57 1017.3
20260830213203 80 308 5.0 10.0 0.00 0.29 0.29 56 1017.3
20260830213003 80 307 5.0 10.0 0.00 0.29 0.29 56 1017.2
20260830212803 80 307 5.0 10.0 0.00 0.29 0.29 57 1017.1
20260830212603 80 305 5.0 10.0 0.00 0.29 0.29 56 1017.1
20260830212403 80 306 5.0 9.0 0.00 0.29 0.29 57 1017.1
20260830212203 80 303 5.0 9.0 0.00 0.29 0.29 57 1017.1
20260830212003 80 302 5.0 9.0 0.00 0.29 0.29 56 1017.0
20260830211803 80 303 5.0 9.0 0.00 0.29 0.29 56 1017.0
20260830211603 81 303 5.0 9.0 0.00 0.29 0.29 56 1017.1
20260830211403 81 301 5.0 9.0 0.00 0.29 0.29 54 1017.0
20260830211203 81 301 5.0 9.0 0.00 0.29 0.29 54 1017.1
20260830211003 81 300 4.0 9.0 0.00 0.29 0.29 55 1017.1
20260830210803 81 299 4.0 9.0 0.00 0.29 0.29 54 1017.0
20260830210603 81 297 3.0 8.0 0.00 0.29 0.29 54 1016.9
20260830210424 81 299 3.0 8.0 0.00 0.29 0.29 54 1016.8
20260830210203 81 302 4.0 7.0 0.00 0.29 0.29 54 1016.7
20260830210003 81 304 4.0 7.0 0.00 0.29 0.29 55 1016.8
20260830205803 81 305 5.0 9.0 0.00 0.29 0.29 55 1016.9
20260830205603 81 304 5.0 9.0 0.00 0.29 0.29 56 1017.0
20260830205424 81 304 5.0 9.0 0.00 0.29 0.29 54 1017.0
20260830205203 81 304 6.0 10.0 0.00 0.29 0.29 55 1017.0
20260830205003 81 304 6.0 10.0 0.00 0.29 0.29 53 1017.0
20260830204803 81 304 6.0 12.0 0.00 0.29 0.29 54 1017.0
20260830204603 82 308 7.0 12.0 0.00 0.29 0.29 53 1017.0
20260830204403 82 307 7.0 12.0 0.00 0.29 0.29 54 1017.0
20260830204203 82 308 7.0 12.0 0.00 0.29 0.29 54 1017.1
20260830204003 82 307 7.0 13.0 0.00 0.29 0.29 53 1017.1
20260830203803 82 308 7.0 13.0 0.00 0.29 0.29 53 1017.0
20260830203603 82 308 6.0 13.0 0.00 0.29 0.29 52 1017.0
20260830203403 82 312 6.0 13.0 0.00 0.29 0.29 53 1016.9
20260830203203 82 312 6.0 13.0 0.00 0.29 0.29 53 1016.9
20260830203003 82 315 7.0 12.0 0.00 0.29 0.29 55 1016.8
20260830202803 82 315 7.0 12.0 0.00 0.29 0.29 54 1016.9
20260830202603 82 316 8.0 13.0 0.00 0.29 0.29 53 1016.9
20260830202403 83 316 8.0 13.0 0.00 0.29 0.29 53 1016.9
20260830202203 83 315 8.0 13.0 0.00 0.29 0.29 52 1016.9
20260830202003 83 313 8.0 13.0 0.00 0.29 0.29 53 1017.0
20260830201803 83 312 8.0 14.0 0.00 0.29 0.29 51 1016.9
20260830201603 83 310 8.0 14.0 0.00 0.29 0.29 53 1016.9
20260830201403 83 307 8.0 14.0 0.00 0.29 0.29 51 1016.9
20260830201203 83 306 8.0 14.0 0.00 0.29 0.29 52 1016.8
20260830201003 83 307 7.0 14.0 0.00 0.29 0.29 50 1016.8
20260830200803 83 307 7.0 13.0 0.00 0.29 0.29 53 1016.7
20260830200603 83 306 7.0 13.0 0.00 0.29 0.29 52 1016.8
20260830200403 83 308 7.0 12.0 0.00 0.29 0.29 53 1016.7
20260830200203 83 308 6.0 12.0 0.00 0.29 0.29 54 1016.6
20260830200003 83 308 7.0 12.0 0.00 0.29 0.29 51 1016.4
20260830195803 83 308 6.0 13.0 0.00 0.29 0.29 52 1016.5
20260830195603 83 306 7.0 13.0 0.00 0.29 0.29 53 1016.5
20260830195403 83 304 7.0 13.0 0.00 0.29 0.29 52 1016.5
20260830195203 83 302 7.0 14.0 0.00 0.29 0.29 53 1016.5
20260830195003 83 301 8.0 15.0 0.00 0.29 0.29 53 1016.6
20260830194803 83 301 8.0 15.0 0.00 0.29 0.29 53 1016.6
20260830194603 83 301 8.0 17.0 0.00 0.29 0.29 53 1016.6
20260830194403 82 302 8.0 17.0 0.00 0.29 0.29 52 1016.7